[[{"header":{"parameterUnit":"m.s-1","parameterCategory":1,"la1":30.2992,"la2":30.254,"lo1":-89.0895,"lo2":-89.0443,"dy":0.0025,"dx":0.0025,"nx":19,"ny":19,"refTime":"2026-03-18T21:00:00:Z","depth":0,"parameterNumber":2,"parameterNumberName":"U-component_of_WINDS"},"data":[0,0,0,-2.8889,-2.8891,-2.899,-2.899,-2.9134,-2.9135,0,0,0,0,0,0,0,0,0,0,0,-2.887,-2.8871,-2.8889,-2.8891,-2.899,-2.899,-2.9133,-2.9135,0,0,0,0,0,0,0,0,0,0,0,-2.8869,-2.8871,-2.8872,-2.8892,-2.899,-2.899,-2.9133,-2.9053,0,0,0,0,0,0,0,0,0,0,-2.8954,-2.8946,-2.887,-2.8872,-2.8892,-2.899,-2.899,-2.9048,-2.9058,-2.9096,0,-2.9133,0,-2.9137,-2.9146,-2.9146,0,0,0,-2.8884,-2.8939,-2.8956,-2.8873,-2.8893,-2.899,-2.8943,-2.9053,-2.9064,-2.9109,-2.9135,-2.914,-2.9139,-2.9147,-2.9148,-2.9397,-2.9398,0,0,-2.8878,-2.8893,-2.8949,-2.8963,-2.8949,-2.894,-2.8946,-2.9059,-2.9089,-2.9136,-2.9143,-2.9141,-2.9148,-2.9149,-2.9395,-2.9397,0,0,0,-2.8868,-2.889,-2.8904,-2.8958,-2.8974,-2.8943,-2.895,-2.9084,-2.9088,-2.9145,-2.9143,-2.9149,-2.9151,-2.9394,-2.9396,-2.9487,0,0,0,-2.8864,-2.8883,-2.8902,-2.8912,-2.8973,-2.9031,-2.8973,-2.908,-2.9092,-2.9142,-2.9149,-2.9152,-2.9392,-2.9395,-2.948,-2.9527,0,0,0,-2.886,-2.8883,-2.8901,-2.8912,-2.8955,-2.9028,-2.9038,-2.9082,-2.9092,-2.9147,-2.9153,-2.9391,-2.9394,-2.9475,-2.9518,-2.9598,0,0,0,-2.886,-2.8979,-2.8902,-2.9035,-2.8955,-2.9083,-2.9037,-2.9132,-2.9189,-2.915,-2.9392,-2.9396,-2.9473,-2.9513,-2.9592,-2.9669,-2.9702,0,0,-2.9018,-2.8999,-2.9075,-2.901,-2.9156,-2.9067,-2.9226,-2.9265,-2.9256,-2.9351,-2.9356,-2.9482,-2.9518,-2.9597,-2.9879,-2.9906,0,0,0,-2.9131,-2.9187,-2.9222,-2.9278,-2.931,-2.9342,-2.9355,-2.9369,-2.9449,-2.9308,-2.9532,-2.9552,-2.9598,-2.9634,-2.9657,-2.9696,-2.9413,-2.9412,-2.9412,-2.9377,-2.936,-2.9487,-2.9482,-2.9537,-2.9549,-2.9592,-2.9614,-2.958,-2.9633,-2.9662,-2.9835,-2.9878,-2.9895,-2.9936,-2.9699,-2.97,-2.97,-2.97,-2.961,-2.9686,-2.9639,-2.9745,-2.9727,-2.9816,-2.9832,-2.9806,-2.9886,-2.9812,-2.9852,-2.9774,-2.9924,-2.9959,-2.9707,-2.9706,-2.9705,-2.9704,-2.9704,-2.977,-2.9804,-2.982,-2.9899,-2.9963,-2.9953,-3.0033,-3.0013,-2.9994,-3.0034,-3.0062,-3.0061,-3.0058,-3.0048,-3.0049,-3.005,-3.005,-3.0051,-3.0051,-2.9932,-2.9946,-3.0016,-3.0061,-3.0095,-3.0137,-3.015,-3.0183,-3.0214,-3.0193,-3.0193,-3.0156,-2.9941,-2.9889,-3.006,-3.0059,-3.0057,-3.0057,-3.0056,-3.0176,-3.0117,-3.0225,-3.0259,-3.0311,-3.0376,-3.0349,-3.0418,-3.0442,-3.0482,-3.0435,-3.028,-3.0258,-3.024,-3.0197,-3.0438,-3.0438,-3.0438,-3.0438,-3.0313,-3.0299,-3.0406,-3.0462,-3.0514,-3.05,-3.0624,-3.0636,-3.064,-3.0654,-3.0615,-3.0555,-3.0538,-3.0527,-3.0503,-3.0462,-3.0765,-3.0765,-3.0765,-3.0462,-3.0453,-3.0562,-3.0565,-3.0604,-3.0638,-3.0754,-3.0821,-3.0812,-3.0778,-3.0665,-3.0651,-3.0554,-3.0523,-3.0487,-3.045,-3.0375,0,0]},{"header":{"parameterUnit":"m.s-1","parameterCategory":1,"la1":30.2992,"la2":30.254,"lo1":-89.0895,"lo2":-89.0443,"dy":0.0025,"dx":0.0025,"nx":19,"ny":19,"refTime":"2026-03-18T21:00:00:Z","depth":0,"parameterNumber":3,"parameterNumberName":"V-component_of_WINDS"},"data":[0,0,0,-2.6324,-2.6326,-2.6389,-2.639,-2.6481,-2.6482,0,0,0,0,0,0,0,0,0,0,0,-2.6313,-2.6314,-2.6324,-2.6326,-2.6389,-2.639,-2.6481,-2.6482,0,0,0,0,0,0,0,0,0,0,0,-2.6312,-2.6313,-2.6314,-2.6326,-2.6389,-2.639,-2.6481,-2.6429,0,0,0,0,0,0,0,0,0,0,-2.6366,-2.6362,-2.6313,-2.6314,-2.6327,-2.6389,-2.639,-2.6426,-2.6432,-2.6457,0,-2.6482,0,-2.6484,-2.6489,-2.649,0,0,0,-2.632,-2.6357,-2.6368,-2.6315,-2.6327,-2.6389,-2.6359,-2.643,-2.6436,-2.6465,-2.6483,-2.6487,-2.6485,-2.649,-2.649,-2.6655,-2.6656,0,0,-2.6317,-2.6328,-2.6363,-2.6373,-2.6364,-2.6357,-2.6361,-2.6434,-2.6454,-2.6484,-2.6488,-2.6487,-2.6491,-2.6491,-2.6654,-2.6656,0,0,0,-2.6311,-2.6326,-2.6334,-2.6369,-2.638,-2.6359,-2.6364,-2.645,-2.6452,-2.6489,-2.6488,-2.6491,-2.6492,-2.6653,-2.6655,-2.6718,0,0,0,-2.6308,-2.6322,-2.6333,-2.634,-2.6379,-2.6416,-2.6379,-2.6447,-2.6455,-2.6488,-2.6491,-2.6493,-2.6652,-2.6654,-2.6713,-2.6746,0,0,0,-2.6306,-2.6321,-2.6333,-2.6341,-2.6369,-2.6415,-2.6421,-2.6449,-2.6455,-2.649,-2.6494,-2.6651,-2.6654,-2.671,-2.6739,-2.6793,0,0,0,-2.6307,-2.6387,-2.6334,-2.6424,-2.6368,-2.6453,-2.642,-2.6482,-2.652,-2.6492,-2.6652,-2.6655,-2.6708,-2.6736,-2.6789,-2.6841,-2.6864,0,0,-2.6414,-2.6401,-2.6452,-2.6407,-2.6504,-2.6442,-2.6548,-2.6572,-2.6564,-2.6625,-2.6629,-2.6715,-2.6739,-2.6792,-2.6983,-2.7001,0,0,0,-2.649,-2.6528,-2.6551,-2.6588,-2.6608,-2.6628,-2.6634,-2.6642,-2.6694,-2.6598,-2.6748,-2.6762,-2.6793,-2.6817,-2.6832,-2.6858,-2.6666,-2.6666,-2.6666,-2.6659,-2.6646,-2.6731,-2.6726,-2.6761,-2.6767,-2.6795,-2.6807,-2.6783,-2.6818,-2.6837,-2.6954,-2.6983,-2.6995,-2.7022,-2.6862,-2.6862,-2.6862,-2.6862,-2.6817,-2.6868,-2.6834,-2.6905,-2.689,-2.6949,-2.6957,-2.6938,-2.699,-2.6939,-2.6966,-2.6912,-2.7015,-2.7038,-2.6867,-2.6866,-2.6866,-2.6865,-2.6865,-2.6927,-2.6949,-2.6959,-2.7011,-2.7052,-2.7043,-2.7095,-2.7079,-2.7064,-2.7091,-2.7109,-2.7108,-2.7106,-2.71,-2.7101,-2.7101,-2.7101,-2.7102,-2.7102,-2.7038,-2.7047,-2.7093,-2.7122,-2.7143,-2.7169,-2.7175,-2.7196,-2.7215,-2.7199,-2.7199,-2.7172,-2.7027,-2.6991,-2.7108,-2.7107,-2.7106,-2.7106,-2.7105,-2.7205,-2.7165,-2.7237,-2.7259,-2.7291,-2.7333,-2.7312,-2.7355,-2.7369,-2.7396,-2.7363,-2.7257,-2.7242,-2.723,-2.7201,-2.7365,-2.7365,-2.7365,-2.7365,-2.7299,-2.729,-2.736,-2.7396,-2.7429,-2.7417,-2.7499,-2.7504,-2.7503,-2.7511,-2.7485,-2.7444,-2.7432,-2.7424,-2.7407,-2.738,-2.7586,-2.7586,-2.7586,-2.7402,-2.7395,-2.7468,-2.7467,-2.7491,-2.7511,-2.7588,-2.763,-2.762,-2.7595,-2.7517,-2.7508,-2.7442,-2.7421,-2.7396,-2.7371,-2.732,0,0]}]]